Regional Weather Roundup
Issued by NWS

Home | Current Version | Previous Version | Text Only | Print | Product List | Glossary Off
Versions: 1 2 3 4 5 6 7 8 9 10 11 12 13 14 15 16 17 18 19 20 21 22 23 24 25 26 27 28 29 30 31 32 33 34 35 36 37 38 39 40 41 42 43 44 45 46 47 48 49 50

573
ASUS45 KBOU 251807
RWRCO

WEATHER ROUNDUP FOR COLORADO
NATIONAL WEATHER SERVICE DENVER/BOULDER CO
1200 PM MDT THU MAY 25 2017

NOTE: "FAIR" INDICATES FEW OR NO CLOUDS BELOW 12000 FEET WITH NO
SIGNIFICANT WEATHER AND/OR OBSTRUCTIONS TO VISIBILITY.

COZ001>005-013-030-031-251900-
...NORTHWEST COLORADO...

CITY           SKY/WX    TMP DP  RH WIND       PRES   REMARKS
CRAIG          FAIR      59  42  53 MISG      29.74F
HAYDEN         FAIR      52  39  62 E5        29.75F
MEEKER         FAIR      62  46  55 NE7       29.72F
RABBIT EARS PA CLOUDY    39  34  81 W8G18     29.93R
STEAMBOAT SPGS CLOUDY    53  41  62 E6        29.76F
WALDEN           N/A     50  34  53 SW30G38   29.82R
$$

COZ006>008-011-251900-
...WEST CENTRAL VALLEYS...

CITY           SKY/WX    TMP DP  RH WIND       PRES   REMARKS
GRAND JUNCTION FAIR      78  28  16 W17G25    29.60S
MONTROSE       FAIR      77  22  13 W17G26    29.69F
EAGLE          PTSUNNY   64  36  34 SW14      29.70R
RIFLE          FAIR      75  29  18 SW24G36   29.66R
DELTA          FAIR      83  21  10 SW23G29   29.63F
NUCLA          NOT AVBL
$$

COZ017>023-064>068-251900-
...SOUTHWEST COLORADO...

CITY           SKY/WX    TMP DP  RH WIND       PRES   REMARKS
DURANGO        FAIR      73  16  11 SW23G31   29.81F
CORTEZ         FAIR      77  21  12 SW16G28   29.78F
PAGOSA SPRINGS NOT AVBL
TELLURIDE      FAIR      60  15  17 SW15G31   29.95S
WOLF CREEK PAS PTSUNNY   43  19  39 S21G28    30.15S
$$

COZ009-010-012-014-032>034-037-058>063-251900-
...CENTRAL COLORADO...

CITY           SKY/WX    TMP DP  RH WIND       PRES   REMARKS
ASPEN          FAIR      66  23  19 W13G23    29.75F
BUENA VISTA    FAIR      67  16  14 SW26G36   29.80S
COPPER MTN     FAIR      46  18  31 W21G37    29.99S
BERTHOUD PASS  FAIR      39  30  70 NW35G54   29.96R
COTTONWOOD PAS PTSUNNY   57  10  15 SW23G36   29.92R
GUNNISON       FAIR      68  20  16 W23G29    29.79F
KREMMLING      FAIR      63  41  45 N10G17    29.78S
LEADVILLE      FAIR      56  15  20 SW13G25   29.88F
MONARCH PASS   CLOUDY    45  14  29 W40G54    30.12F
SALIDA         PTSUNNY   70  14  11 SW12G35   29.85S
SUNLIGHT       CLOUDY    43  28  56 SW16G30   29.96S THUNDER
WILKERSON PASS PTSUNNY   50  19  29 SW17G28   29.98F
$$

COZ069>075-251900-
...SAN LUIS VALLEY/SANGRE DE CRISTO MOUNTAINS...

CITY           SKY/WX    TMP DP  RH WIND       PRES   REMARKS
ALAMOSA        FAIR      72  18  13 W25G39    29.84R
DEL NORTE      FAIR      69  21  15 SW24G32   29.84F
LA VETA PASS   FAIR      59  19  21 MISG      30.07S
SAGUACHE       FAIR      70  18  13 W15G29    29.81F
$$

COZ035-036-038>040-251900-
...NORTHERN COLORADO FRONT RANGE...

CITY           SKY/WX    TMP DP  RH WIND       PRES   REMARKS
DENVER INTL AP PTSUNNY   74  45  35 N21       29.60R
DMNS CITY PARK   N/A     74  41  30 NE10G24   29.58S
AURORA         PTSUNNY   74  44  33 N17G24    29.61R
FRONT RANGE AP PTSUNNY   75  46  35 N23G29    29.61R
ERIE MUNI ARPT FAIR      72  44  36 N17G23    29.57F
BOULDER MUN AP FAIR      70  45  40 N12G18    29.58F
CENTENNIAL     PTSUNNY   75  39  27 NE16G24   29.60S
BROOMFIELD     NOT AVBL
FORT COLLINS   FAIR      64  47  53 CALM      29.61F
LONGMONT       FAIR      68  47  46 NE13      29.60F
$$

COZ041-046-047-076>085-087-088-251900-
...PIKES PEAK/PALMER DIVIDE AND SOUTHERN FOOTHILLS...

CITY           SKY/WX    TMP DP  RH WIND       PRES   REMARKS
COLO. SPRINGS  FAIR      80  19  10 W25G44    29.65F
A. F. ACADEMY  SUNNY     77  21  12 SW10G30   29.65F
SCHRIEVER AFB  FAIR      78  26  14 SW16G28   29.66F
CHEYENNE MTN   FAIR      74  20  13 SE26G41   29.63
ELLICOTT       FAIR     N/A N/A N/A SW20G26   29.64F
FALCON         FAIR      75  21  13 SW12G18   29.70F
FORT CARSON    FAIR      79  24  13 SW23G35   29.63R
LIMON          FAIR      81  31  16 SW12G18   29.60F
MONUMENT HILL  FAIR      70  30  23 W20G25    29.71F
CANON CITY     NOT AVBL
WALSENBURG     FAIR      79  30  17 W17G25    29.69F
TRINIDAD       FAIR      82  23  11 W17G29    29.70S
$$

COZ042>045-048>051-090-091-251900-
...NORTHEAST COLORADO...

CITY           SKY/WX    TMP DP  RH WIND       PRES   REMARKS
GREELEY ARPT   FAIR      64  48  56 N9        29.59F
AKRON          FAIR      75  47  36 SE8       29.58R
BURLINGTON     FAIR      80  54  40 NE6       29.57R
WRAY           FAIR      79  46  31 NE9       29.53S
YUMA           FAIR      72  48  43 NE9       29.56R
STERLING       FAIR      72  52  49 NE7       29.54S THUNDER
HOLYOKE        NOT AVBL
FORT MORGAN    PTSUNNY   70  47  43 CALM      29.61R THUNDER
$$

COZ086-089-092>099-251900-
...SOUTHEAST COLORADO...

CITY           SKY/WX    TMP DP  RH WIND       PRES   REMARKS
PUEBLO         FAIR      86  32  14 W20G36    29.57S
LA JUNTA       FAIR      89  33  13 W18G25    29.55F
LAMAR          FAIR      86  46  24 VRB7      29.51F
SPRINGFIELD      N/A     87  32  14 W13G23    29.58F
$$




USA.gov is the U.S. government's official web portal to all federal, state and local government web resources and services.